Orbital Elements at Epoch 2457064.5 (2015-Feb-11.0) TDB
Reference: JPL K212/14 (heliocentric ecliptic J2000)
Element | Value | Uncertainty (1-sigma) | Units |
e | .4317519490501375 | 2.1371e-07 | |
a | 3.619799506563556 | 2.9021e-07 | au |
q | 2.056944014434015 | 9.2709e-07 | au |
i | 19.0918205316614 | 7.6277e-06 | deg |
node | 326.7639708316963 | 4.7601e-05 | deg |
peri | 24.53542337513593 | 6.5081e-05 | deg |
M | 45.86180498111855 | 2.377e-05 | deg |
tp | 2456744.039988387259 (2014-Mar-27.53998839) | 0.00017962 | TDB |
period | 2515.505096846563 6.89 | 0.00030251 8.282e-07 | d yr |
n | .1431124112812556 | 1.721e-08 | deg/d |
Q | 5.182654998693097 | 4.155e-07 | au |
|
Additional Model Parameters
Parameter | Value | Uncertainty (1-sigma) |
A1 [EST] | 4.791743337115952E-9 | 6.618E-10 |
A2 [EST] | 1.297575992185322E-9 | 2.357E-10 |
|
| | Orbit Determination Parameters
Additional Information
|